Location: Franzen
(48.6167°N, 15.3833°E)
Time: 09:19:45
(UTC+00:00)

A-11 Canister half - Pass Details

Date: 02 August 2021
Orbit: 1515 x 1685 km, 47.2° (Epoch: 21 September)

Event Time Altitude Azimuth Distance (km) Brightness Sun altitude
Rises 18:31:53 0° 268° (W) 4,837 12.8 -0.4°
Reaches altitude 10° 18:34:58 10° 268° (W) 3,872 12.3 -0.9°
Maximum altitude 18:44:57 84° 183° (S) 1,683 9.3 -2.3°
Drops below altitude 10° 18:55:10 10° 97° (E) 3,950 10.6 -3.8°
Sets 18:58:20 0° 97° (E) 4,938 11.1 -4.2°
